TimeMDT,TemperatureF,Dew PointF,Humidity,Sea Level PressureIn,VisibilityMPH,Wind Direction,Wind SpeedMPH,Gust SpeedMPH,PrecipitationIn,Events,Conditions,WindDirDegrees,DateUTC
12:53 AM,55.9,51.1,84,29.94,10.0,NW,3.5,-,N/A,,Mostly Cloudy,320,2013-07-13 06:53:00
1:53 AM,55.9,50.0,80,29.95,10.0,WSW,3.5,-,N/A,,Overcast,250,2013-07-13 07:53:00
2:53 AM,57.0,51.1,81,29.97,10.0,SW,4.6,-,N/A,,Scattered Clouds,220,2013-07-13 08:53:00
3:53 AM,55.0,50.0,83,29.98,10.0,Calm,Calm,-,N/A,,Overcast,0,2013-07-13 09:53:00
4:53 AM,55.0,50.0,83,29.98,10.0,South,3.5,-,N/A,,Partly Cloudy,190,2013-07-13 10:53:00
5:53 AM,54.0,50.0,86,30.00,10.0,SSW,4.6,-,N/A,,Overcast,210,2013-07-13 11:53:00
6:53 AM,55.9,48.0,75,30.01,10.0,South,5.8,-,N/A,,Mostly Cloudy,180,2013-07-13 12:53:00
7:53 AM,59.0,48.0,67,30.01,10.0,Calm,Calm,-,N/A,,Partly Cloudy,0,2013-07-13 13:53:00
8:53 AM,63.0,48.0,58,30.00,10.0,Calm,Calm,-,N/A,,Scattered Clouds,0,2013-07-13 14:53:00
9:53 AM,64.9,48.0,54,29.98,10.0,Calm,Calm,-,N/A,,Scattered Clouds,0,2013-07-13 15:53:00
10:53 AM,73.9,46.9,38,29.96,10.0,North,6.9,-,N/A,,Partly Cloudy,360,2013-07-13 16:53:00
11:53 AM,77.0,46.9,34,29.94,10.0,Variable,6.9,16.1,N/A,,Partly Cloudy,0,2013-07-13 17:53:00
12:53 PM,79.0,48.0,34,29.91,10.0,NNW,9.2,-,N/A,,Scattered Clouds,340,2013-07-13 18:53:00
1:11 PM,77.0,46.4,34,30.30,10.0,NW,9.2,-,N/A,Thunderstorm,Thunderstorm,320,2013-07-13 19:11:00
1:53 PM,75.0,48.9,40,29.92,10.0,North,12.7,20.7,N/A,,Mostly Cloudy,350,2013-07-13 19:53:00
2:53 PM,81.0,43.0,26,29.87,10.0,NNW,8.1,-,N/A,,Mostly Cloudy,330,2013-07-13 20:53:00
3:53 PM,84.0,39.9,21,29.85,10.0,NNW,11.5,-,N/A,,Scattered Clouds,340,2013-07-13 21:53:00
4:35 PM,71.6,46.4,41,30.29,10.0,ESE,20.7,26.5,N/A,,Overcast,120,2013-07-13 22:35:00
4:53 PM,71.1,45.0,39,29.93,10.0,SE,19.6,27.6,N/A,,Mostly Cloudy,130,2013-07-13 22:53:00
5:53 PM,72.0,45.0,38,29.93,10.0,SE,9.2,23.0,N/A,,Mostly Cloudy,140,2013-07-13 23:53:00
6:53 PM,73.0,44.1,35,29.91,10.0,SE,10.4,-,N/A,,Clear,130,2013-07-14 00:53:00
7:53 PM,71.1,46.0,41,29.92,10.0,South,8.1,-,N/A,,Scattered Clouds,180,2013-07-14 01:53:00
8:53 PM,66.0,46.9,50,29.93,10.0,SSW,5.8,-,N/A,,Overcast,200,2013-07-14 02:53:00
9:53 PM,66.0,48.0,52,29.95,10.0,South,5.8,-,N/A,,Partly Cloudy,170,2013-07-14 03:53:00
10:53 PM,61.0,46.9,60,29.94,10.0,South,5.8,-,N/A,,Scattered Clouds,190,2013-07-14 04:53:00
11:53 PM,57.9,46.0,65,29.96,10.0,SSW,6.9,-,N/A,,Clear,210,2013-07-14 05:53:00